Location: Unspecified
(0.0000°N, 0.0000°E)
Time: 21:44:04
(UTC+00:00)

Explorer 7 - Visible Passes

Search period start: 01 October 2022 00:00
Search period end: 11 October 2022 00:00
Orbit: 482 x 667 km, 50.3° (Epoch: 01 October)

Date Brightness Start Highest point End Pass type
(mag) Time Alt. Az. Time Alt. Az. Time Alt. Az.
02 Oct 9.7 19:57:06 10° NW 19:57:23 12° NW 19:57:23 12° NW visible
03 Oct 8.5 18:20:58 10° NNE 18:23:10 14° NE 18:24:51 11° ENE visible
03 Oct 9.5 20:00:00 10° WNW 20:01:06 16° WNW 20:01:06 16° WNW visible
04 Oct 7.7 18:22:08 10° N 18:25:38 28° NE 18:28:47 11° ESE visible
04 Oct 9.7 20:03:45 10° W 20:05:03 13° WSW 20:05:03 13° WSW visible
05 Oct 6.7 18:24:01 10° NNW 18:28:01 60° NE 18:31:51 10° SE visible
06 Oct 7.2 18:26:22 10° NW 18:30:23 61° SW 18:34:13 10° SSE visible
07 Oct 10.1 04:49:06 10° SSE 04:50:45 12° SE 04:52:27 10° ESE visible
07 Oct 8.8 18:29:13 10° WNW 18:32:43 28° SW 18:36:07 10° S visible
08 Oct 9.5 04:49:41 10° S 04:53:07 22° SE 04:56:41 10° ENE visible
08 Oct 9.7 18:32:49 10° W 18:35:04 14° SW 18:37:16 10° SSW visible
09 Oct 8.3 04:51:19 10° SSW 04:55:26 42° SE 04:59:47 10° NE visible
10 Oct 7.0 04:53:25 10° SW 04:57:46 86° SE 05:02:21 10° NE visible
